AAL809 KTYS-KMCO

Flight info

Callsign AAL809
Flight time 1h 11m
Altitude 35000
Route TALLA DAREE Q65 KERLY/N0431F340 WHYYT GRNCH5
Aircraft A320/M-SDE3FGHIRWY/LB1

Departure

Time 2026-05-05 16:14
Airport McGhee Tyson Airport (KTYS)

Arrival

Time 2026-05-05 17:25
Airport Orlando International Airport (KMCO)
Time Latitude Longitude Altitude Speed Heading
2026-05-05 15:58 35.80756 -83.99004 969 ft 0 kts 241°
2026-05-05 16:07 35.80759 -83.98997 968 ft 3 kts 237°
2026-05-05 16:07 35.80771 -83.98978 964 ft 3 kts 233°
2026-05-05 16:07 35.80781 -83.98960 963 ft 3 kts 246°
2026-05-05 16:08 35.80786 -83.98938 964 ft 3 kts 283°
2026-05-05 16:08 35.80779 -83.98919 964 ft 2 kts 312°
2026-05-05 16:08 35.80776 -83.98916 964 ft 1 kts 314°
2026-05-05 16:10 35.80777 -83.98917 964 ft 2 kts 314°
2026-05-05 16:10 35.80806 -83.98954 963 ft 10 kts 314°
2026-05-05 16:10 35.80866 -83.99026 968 ft 14 kts 328°
2026-05-05 16:10 35.80958 -83.99038 965 ft 14 kts 360°
2026-05-05 16:11 35.81043 -83.98975 966 ft 15 kts 45°
2026-05-05 16:11 35.81309 -83.98649 966 ft 20 kts 44°
2026-05-05 16:12 35.81410 -83.98524 966 ft 21 kts 45°
2026-05-05 16:12 35.81635 -83.98272 965 ft 15 kts 24°
2026-05-05 16:13 35.81646 -83.98402 961 ft 47 kts 224°
2026-05-05 16:13 35.81203 -83.98936 961 ft 127 kts 224°
2026-05-05 16:13 35.80434 -83.99862 1107 ft 174 kts 223°
2026-05-05 16:14 35.78153 -84.01630 1746 ft 244 kts 184°
2026-05-05 16:14 35.74786 -84.00506 1743 ft 252 kts 159°
2026-05-05 16:15 35.71562 -83.98818 2946 ft 254 kts 161°
2026-05-05 16:15 35.68186 -83.97503 4734 ft 256 kts 175°
2026-05-05 16:16 35.64586 -83.97017 6418 ft 263 kts 177°
2026-05-05 16:16 35.60907 -83.96627 8016 ft 269 kts 178°
2026-05-05 16:17 35.57116 -83.96232 9535 ft 277 kts 178°
2026-05-05 16:17 35.55186 -83.96022 10258 ft 281 kts 178°
2026-05-05 16:18 35.51232 -83.95585 11501 ft 294 kts 178°
2026-05-05 16:18 35.49134 -83.95357 11851 ft 311 kts 178°
2026-05-05 16:18 35.44604 -83.94865 12426 ft 343 kts 178°
2026-05-05 16:19 35.42173 -83.94602 12766 ft 356 kts 178°
2026-05-05 16:19 35.39691 -83.94328 13356 ft 361 kts 178°
2026-05-05 16:19 35.34631 -83.93770 14523 ft 369 kts 178°
2026-05-05 16:20 35.29462 -83.93206 15564 ft 377 kts 178°
2026-05-05 16:20 35.24171 -83.92642 16619 ft 385 kts 178°
2026-05-05 16:21 35.18776 -83.92055 17711 ft 393 kts 178°
2026-05-05 16:22 35.10463 -83.91135 19223 ft 406 kts 179°
2026-05-05 16:22 35.04741 -83.90514 20205 ft 414 kts 179°
2026-05-05 16:23 34.98977 -83.89888 21136 ft 422 kts 180°
2026-05-05 16:23 34.96996 -83.89673 21426 ft 425 kts 180°
2026-05-05 16:23 34.91065 -83.89035 22273 ft 432 kts 180°
2026-05-05 16:24 34.88058 -83.88713 22672 ft 435 kts 180°
2026-05-05 16:24 34.85033 -83.88391 23053 ft 439 kts 180°
2026-05-05 16:24 34.78896 -83.87734 23797 ft 445 kts 180°
2026-05-05 16:25 34.75801 -83.87401 24121 ft 448 kts 180°
2026-05-05 16:25 34.69562 -83.86724 24776 ft 453 kts 180°
2026-05-05 16:25 34.66409 -83.86384 25073 ft 455 kts 180°
2026-05-05 16:26 34.60188 -83.84483 25694 ft 473 kts 160°
2026-05-05 16:26 34.54255 -83.80897 26271 ft 479 kts 158°
2026-05-05 16:27 34.51259 -83.79081 26572 ft 482 kts 158°
2026-05-05 16:27 34.48212 -83.77242 26864 ft 484 kts 158°
2026-05-05 16:27 34.45189 -83.75421 27169 ft 486 kts 158°
2026-05-05 16:27 34.42155 -83.73596 27455 ft 488 kts 158°
2026-05-05 16:28 34.39103 -83.71762 27735 ft 491 kts 158°
2026-05-05 16:28 34.36039 -83.69919 28106 ft 491 kts 158°
2026-05-05 16:28 34.32990 -83.68086 28534 ft 490 kts 158°
2026-05-05 16:28 34.29934 -83.66250 28948 ft 489 kts 158°
2026-05-05 16:29 34.26887 -83.64422 29347 ft 489 kts 159°
2026-05-05 16:29 34.23836 -83.62593 29765 ft 489 kts 159°
2026-05-05 16:29 34.20797 -83.60771 30175 ft 488 kts 159°
2026-05-05 16:29 34.17754 -83.58950 30514 ft 488 kts 159°
2026-05-05 16:30 34.14702 -83.57128 30831 ft 489 kts 159°
2026-05-05 16:30 34.11657 -83.55313 31151 ft 489 kts 159°
2026-05-05 16:30 34.08600 -83.53491 31471 ft 490 kts 159°
2026-05-05 16:30 34.05546 -83.51671 31789 ft 490 kts 159°
2026-05-05 16:31 34.02488 -83.49845 32116 ft 491 kts 159°
2026-05-05 16:31 33.99430 -83.48021 32425 ft 491 kts 159°
2026-05-05 16:31 33.96373 -83.46198 32766 ft 491 kts 159°
2026-05-05 16:31 33.93308 -83.44376 33100 ft 491 kts 159°
2026-05-05 16:32 33.90245 -83.42557 33415 ft 492 kts 159°
2026-05-05 16:32 33.87170 -83.40734 33747 ft 492 kts 159°
2026-05-05 16:32 33.84104 -83.38915 34069 ft 492 kts 159°
2026-05-05 16:32 33.81026 -83.37092 34341 ft 492 kts 159°
2026-05-05 16:33 33.77954 -83.35276 34592 ft 492 kts 159°
2026-05-05 16:33 33.74884 -83.33460 34853 ft 492 kts 159°
2026-05-05 16:33 33.71810 -83.31641 35050 ft 493 kts 159°
2026-05-05 16:33 33.68721 -83.29816 35108 ft 497 kts 159°
2026-05-05 16:34 33.62450 -83.26120 35119 ft 505 kts 159°
2026-05-05 16:34 33.56132 -83.22396 35118 ft 506 kts 159°
2026-05-05 16:35 33.49783 -83.18652 35114 ft 505 kts 159°
2026-05-05 16:35 33.43479 -83.14949 35108 ft 505 kts 159°
2026-05-05 16:36 33.37163 -83.11257 35107 ft 505 kts 160°
2026-05-05 16:36 33.30861 -83.07572 35097 ft 505 kts 160°
2026-05-05 16:37 33.24552 -83.03883 35106 ft 504 kts 160°
2026-05-05 16:37 33.18249 -83.00202 35100 ft 504 kts 160°
2026-05-05 16:38 33.11949 -82.96528 35110 ft 504 kts 160°
2026-05-05 16:38 33.05649 -82.92862 35101 ft 504 kts 160°
2026-05-05 16:39 32.99341 -82.89212 35106 ft 503 kts 160°
2026-05-05 16:39 32.93049 -82.85566 35100 ft 504 kts 160°
2026-05-05 16:40 32.86703 -82.81883 35116 ft 503 kts 160°
2026-05-05 16:40 32.80447 -82.78264 35115 ft 503 kts 160°
2026-05-05 16:41 32.74153 -82.74635 35122 ft 502 kts 160°
2026-05-05 16:41 32.67831 -82.70993 35112 ft 502 kts 160°
2026-05-05 16:42 32.61541 -82.67377 35114 ft 501 kts 160°
2026-05-05 16:42 32.55251 -82.63776 35116 ft 502 kts 161°
2026-05-05 16:43 32.48958 -82.60176 35090 ft 506 kts 160°
2026-05-05 16:43 32.42557 -82.56518 35105 ft 513 kts 160°
2026-05-05 16:44 32.36132 -82.52843 35102 ft 512 kts 161°
2026-05-05 16:44 32.30263 -82.49493 35112 ft 513 kts 161°
2026-05-05 16:45 32.23824 -82.45818 35120 ft 512 kts 161°
2026-05-05 16:45 32.17410 -82.42169 35111 ft 513 kts 161°
2026-05-05 16:46 32.10965 -82.38548 35112 ft 510 kts 165°
2026-05-05 16:46 32.04263 -82.36407 35098 ft 491 kts 182°
2026-05-05 16:47 31.97505 -82.35697 35111 ft 488 kts 184°
2026-05-05 16:47 31.90735 -82.34984 35110 ft 488 kts 184°
2026-05-05 16:48 31.83974 -82.34254 35121 ft 487 kts 184°
2026-05-05 16:48 31.77173 -82.33530 35115 ft 487 kts 184°
2026-05-05 16:49 31.70428 -82.32817 35122 ft 487 kts 184°
2026-05-05 16:49 31.63686 -82.32110 35114 ft 487 kts 184°
2026-05-05 16:50 31.56935 -82.31396 35123 ft 486 kts 184°
2026-05-05 16:50 31.50207 -82.30684 35115 ft 485 kts 184°
2026-05-05 16:51 31.43484 -82.29984 35117 ft 484 kts 185°
2026-05-05 16:51 31.36776 -82.29277 35113 ft 484 kts 184°
2026-05-05 16:52 31.30064 -82.28567 35124 ft 483 kts 185°
2026-05-05 16:52 31.23377 -82.27866 35123 ft 483 kts 185°
2026-05-05 16:53 31.16683 -82.27168 35129 ft 482 kts 184°
2026-05-05 16:53 31.10013 -82.26476 35120 ft 481 kts 184°
2026-05-05 16:54 31.03354 -82.25788 35120 ft 479 kts 186°
2026-05-05 16:54 31.00027 -82.25768 35111 ft 466 kts 194°
2026-05-05 16:54 30.96875 -82.26191 35104 ft 462 kts 197°
2026-05-05 16:55 30.90468 -82.27152 35108 ft 461 kts 197°
2026-05-05 16:55 30.85181 -82.27935 35105 ft 461 kts 197°
2026-05-05 16:56 30.78823 -82.28874 35105 ft 460 kts 197°
2026-05-05 16:56 30.72476 -82.29807 35092 ft 460 kts 197°
2026-05-05 16:57 30.66134 -82.30741 35101 ft 459 kts 197°
2026-05-05 16:57 30.59737 -82.31406 35098 ft 470 kts 187°
2026-05-05 16:58 30.56447 -82.31009 35093 ft 482 kts 179°
2026-05-05 16:58 30.53148 -82.30329 35097 ft 482 kts 179°
2026-05-05 16:58 30.46544 -82.28981 35097 ft 481 kts 179°
2026-05-05 16:59 30.39945 -82.27653 35104 ft 480 kts 179°
2026-05-05 16:59 30.33361 -82.26344 35101 ft 480 kts 179°
2026-05-05 17:00 30.26738 -82.25015 35105 ft 480 kts 179°
2026-05-05 17:00 30.20163 -82.23693 35107 ft 479 kts 179°
2026-05-05 17:01 30.13636 -82.22392 35111 ft 479 kts 179°
2026-05-05 17:01 30.07074 -82.21092 35108 ft 478 kts 179°
2026-05-05 17:02 30.00478 -82.19800 35111 ft 478 kts 179°
2026-05-05 17:02 29.93912 -82.18514 35111 ft 479 kts 179°
2026-05-05 17:03 29.87345 -82.17213 35111 ft 479 kts 179°
2026-05-05 17:03 29.80775 -82.15898 35120 ft 479 kts 179°
2026-05-05 17:04 29.77488 -82.15238 34821 ft 481 kts 179°
2026-05-05 17:04 29.74164 -82.14576 33707 ft 487 kts 179°
2026-05-05 17:04 29.70825 -82.13912 32797 ft 487 kts 178°
2026-05-05 17:04 29.67495 -82.13242 32026 ft 483 kts 178°
2026-05-05 17:05 29.64178 -82.12579 30994 ft 486 kts 178°
2026-05-05 17:05 29.60849 -82.11924 29834 ft 490 kts 178°
2026-05-05 17:05 29.57482 -82.11264 28666 ft 491 kts 177°
2026-05-05 17:05 29.54139 -82.10603 27716 ft 488 kts 177°
2026-05-05 17:06 29.50797 -82.09939 26887 ft 484 kts 176°
2026-05-05 17:06 29.47507 -82.09281 26060 ft 480 kts 176°
2026-05-05 17:06 29.44229 -82.08626 25388 ft 474 kts 176°
2026-05-05 17:06 29.41017 -82.07988 24817 ft 465 kts 176°
2026-05-05 17:07 29.37841 -82.07359 24312 ft 457 kts 176°
2026-05-05 17:07 29.34723 -82.06740 24159 ft 441 kts 176°
2026-05-05 17:07 29.31787 -82.06032 23818 ft 436 kts 169°
2026-05-05 17:07 29.28940 -82.04813 23303 ft 438 kts 159°
2026-05-05 17:08 29.26224 -82.03148 22730 ft 437 kts 155°
2026-05-05 17:08 29.23604 -82.01488 22190 ft 433 kts 155°
2026-05-05 17:08 29.20950 -81.99810 21677 ft 429 kts 155°
2026-05-05 17:08 29.18342 -81.98168 21195 ft 426 kts 155°
2026-05-05 17:09 29.15754 -81.96542 20744 ft 422 kts 155°
2026-05-05 17:09 29.13188 -81.94931 20290 ft 419 kts 155°
2026-05-05 17:09 29.10645 -81.93332 19829 ft 415 kts 155°
2026-05-05 17:09 29.08132 -81.91734 19373 ft 413 kts 152°
2026-05-05 17:10 29.05808 -81.89802 18929 ft 413 kts 141°
2026-05-05 17:10 29.03711 -81.87568 18473 ft 411 kts 139°
2026-05-05 17:10 29.01638 -81.85338 17955 ft 407 kts 139°
2026-05-05 17:10 28.99596 -81.83141 17610 ft 399 kts 139°
2026-05-05 17:11 28.97683 -81.80900 17264 ft 392 kts 131°
2026-05-05 17:11 28.96017 -81.78447 16785 ft 389 kts 129°
2026-05-05 17:11 28.94380 -81.76013 16308 ft 385 kts 129°
2026-05-05 17:11 28.92756 -81.73598 15850 ft 382 kts 129°
2026-05-05 17:12 28.91145 -81.71203 15383 ft 378 kts 129°
2026-05-05 17:12 28.89550 -81.68836 14931 ft 375 kts 129°
2026-05-05 17:12 28.87961 -81.66484 14490 ft 372 kts 129°
2026-05-05 17:12 28.86392 -81.64164 14043 ft 369 kts 129°
2026-05-05 17:13 28.84832 -81.61859 13557 ft 365 kts 129°
2026-05-05 17:13 28.83286 -81.59576 13102 ft 361 kts 129°
2026-05-05 17:13 28.81778 -81.57346 12964 ft 348 kts 129°
2026-05-05 17:13 28.80290 -81.55246 12833 ft 335 kts 136°
2026-05-05 17:14 28.78539 -81.53589 12667 ft 322 kts 150°
2026-05-05 17:14 28.76594 -81.52376 12328 ft 317 kts 155°
2026-05-05 17:14 28.74644 -81.51216 11966 ft 315 kts 155°
2026-05-05 17:14 28.72713 -81.50065 11613 ft 313 kts 155°
2026-05-05 17:15 28.70795 -81.48920 11268 ft 311 kts 155°
2026-05-05 17:15 28.68863 -81.47768 10912 ft 309 kts 155°
2026-05-05 17:15 28.66989 -81.46649 10579 ft 306 kts 155°
2026-05-05 17:15 28.65081 -81.45510 10240 ft 304 kts 155°
2026-05-05 17:16 28.63210 -81.44393 9920 ft 302 kts 155°
2026-05-05 17:16 28.61349 -81.43311 9553 ft 299 kts 160°
2026-05-05 17:16 28.59398 -81.42671 9415 ft 286 kts 174°
2026-05-05 17:16 28.57461 -81.42449 9291 ft 275 kts 178°
2026-05-05 17:17 28.55590 -81.42393 9160 ft 264 kts 182°
2026-05-05 17:17 28.53775 -81.42389 8968 ft 258 kts 182°
2026-05-05 17:17 28.51986 -81.42394 8683 ft 256 kts 183°
2026-05-05 17:17 28.50213 -81.42401 8390 ft 255 kts 182°
2026-05-05 17:18 28.48444 -81.42409 8071 ft 254 kts 182°
2026-05-05 17:18 28.46682 -81.42415 7757 ft 252 kts 182°
2026-05-05 17:18 28.44931 -81.42419 7454 ft 251 kts 182°
2026-05-05 17:18 28.43186 -81.42420 7142 ft 250 kts 181°
2026-05-05 17:19 28.41452 -81.42421 6838 ft 249 kts 180°
2026-05-05 17:19 28.39716 -81.42421 6533 ft 248 kts 180°
2026-05-05 17:19 28.37992 -81.42419 6213 ft 248 kts 180°
2026-05-05 17:19 28.36263 -81.42419 5810 ft 251 kts 179°
2026-05-05 17:20 28.34491 -81.42352 5337 ft 255 kts 168°
2026-05-05 17:20 28.32979 -81.41460 5096 ft 242 kts 134°
2026-05-05 17:20 28.31975 -81.39946 4564 ft 239 kts 118°
2026-05-05 17:20 28.31239 -81.38298 4258 ft 228 kts 113°
2026-05-05 17:21 28.30597 -81.36694 4027 ft 218 kts 112°
2026-05-05 17:21 28.29985 -81.35179 3808 ft 205 kts 112°
2026-05-05 17:21 28.29391 -81.33765 3616 ft 195 kts 113°
2026-05-05 17:22 28.28289 -81.30957 3218 ft 190 kts 95°
2026-05-05 17:22 28.28484 -81.29503 2870 ft 189 kts 61°
2026-05-05 17:22 28.29389 -81.28409 2490 ft 192 kts 28°
2026-05-05 17:22 28.30685 -81.28092 2211 ft 196 kts 359°
2026-05-05 17:23 28.32039 -81.28128 2017 ft 187 kts
2026-05-05 17:23 28.33304 -81.28147 1768 ft 181 kts
2026-05-05 17:23 28.34531 -81.28160 1537 ft 170 kts
2026-05-05 17:23 28.35700 -81.28172 1320 ft 158 kts
2026-05-05 17:24 28.36763 -81.28183 1126 ft 148 kts
2026-05-05 17:24 28.37775 -81.28192 938 ft 146 kts
2026-05-05 17:24 28.38792 -81.28201 740 ft 146 kts
2026-05-05 17:24 28.39796 -81.28209 537 ft 143 kts
2026-05-05 17:25 28.40792 -81.28226 317 ft 142 kts
2026-05-05 17:25 28.41445 -81.28237 196 ft 141 kts
2026-05-05 17:25 28.42715 -81.28247 100 ft 129 kts
2026-05-05 17:25 28.43384 -81.28240 96 ft 44 kts 358°
2026-05-05 17:26 28.43514 -81.28343 95 ft 16 kts 242°
2026-05-05 17:26 28.43403 -81.28371 96 ft 20 kts 177°
2026-05-05 17:26 28.43245 -81.28371 94 ft 25 kts 180°
2026-05-05 17:26 28.43054 -81.28367 98 ft 30 kts 180°
2026-05-05 17:27 28.42829 -81.28365 98 ft 35 kts 179°
2026-05-05 17:27 28.42581 -81.28360 96 ft 32 kts 185°
2026-05-05 17:27 28.42479 -81.28497 95 ft 26 kts 248°
2026-05-05 17:27 28.42415 -81.28698 99 ft 29 kts 250°
2026-05-05 17:28 28.42346 -81.28912 104 ft 31 kts 252°
2026-05-05 17:28 28.42283 -81.29172 94 ft 32 kts 271°
2026-05-05 17:28 28.42367 -81.29326 92 ft 22 kts 266°
2026-05-05 17:28 28.42363 -81.29513 94 ft 26 kts 270°
2026-05-05 17:29 28.42364 -81.29658 95 ft 29 kts 270°
2026-05-05 17:29 28.42362 -81.29904 95 ft 34 kts 269°
2026-05-05 17:29 28.42359 -81.30187 95 ft 38 kts 269°
2026-05-05 17:29 28.42349 -81.30495 95 ft 40 kts 266°
2026-05-05 17:30 28.42325 -81.30825 95 ft 43 kts 267°
2026-05-05 17:30 28.42336 -81.31137 97 ft 36 kts 278°
2026-05-05 17:30 28.42350 -81.31418 96 ft 36 kts 269°
2026-05-05 17:30 28.42358 -81.31658 99 ft 19 kts 315°
2026-05-05 17:31 28.42455 -81.31630 100 ft 16 kts 28°
2026-05-05 17:31 28.42582 -81.31622 97 ft 20 kts 343°
2026-05-05 17:31 28.42726 -81.31659 95 ft 22 kts 347°
2026-05-05 17:31 28.42884 -81.31697 98 ft 21 kts 358°
2026-05-05 17:32 28.42945 -81.31624 96 ft 13 kts 75°
2026-05-05 17:32 28.42956 -81.31552 95 ft 7 kts 101°
2026-05-05 17:32 28.42923 -81.31546 95 ft 6 kts 189°
2026-05-05 17:32 28.42892 -81.31553 95 ft 3 kts 191°
2026-05-05 17:33 28.42883 -81.31555 95 ft 0 kts 192°